• In Uzbekistan
  • List of Countries
  • For 7 days
  • Water Temperature
  • Satellite Maps
  • Weather Map
  • Weather Widgets
  • user-avatar
    Login

    Hourly Weather Mendoza

    Today, 23 March, Thursday

    Time Temperature Precipitation Wind Pressure Humidity
    00:00 +23°C° 0 mm 1 mps 700 mmHg 60%
    01:00 +22°C° 0 mm 1 mps 699 mmHg 62%
    02:00 +22°C° 0 mm 1 mps 699 mmHg 62%
    03:00 +21°C° 0 mm 1 mps 699 mmHg 63%
    04:00 +21°C° 0 mm 1 mps 699 mmHg 63%
    05:00 +22°C° 0 mm 1 mps 699 mmHg 59%
    06:00 +23°C° 0 mm 1 mps 699 mmHg 55%
    07:00 +23°C° 0 mm 1 mps 700 mmHg 51%
    08:00 +25°C° 0 mm 2 mps 700 mmHg 45%
    09:00 +27°C° 0 mm 3 mps 700 mmHg 40%
    10:00 +29°C° 0 mm 4 mps 700 mmHg 34%
    11:00 +30°C° 0 mm 4 mps 700 mmHg 32%
    12:00 +32°C° 0 mm 4 mps 699 mmHg 31%
    13:00 +33°C° 0 mm 4 mps 699 mmHg 29%
    14:00 +33°C° 0 mm 4 mps 698 mmHg 29%
    15:00 +32°C° 0 mm 4 mps 698 mmHg 30%
    16:00 +32°C° 0 mm 4 mps 698 mmHg 30%
    17:00 +30°C° 0 mm 3 mps 698 mmHg 34%
    18:00 +28°C° 0 mm 3 mps 698 mmHg 39%
    19:00 +26°C° 0 mm 2 mps 698 mmHg 43%
    20:00 +26°C° 0 mm 2 mps 698 mmHg 45%
    21:00 +25°C° 0 mm 2 mps 699 mmHg 48%
    22:00 +25°C° 0 mm 2 mps 699 mmHg 50%
    23:00 +24°C° 0 mm 2 mps 699 mmHg 51%

    Tomorrow, 24 March, Friday

    Time Temperature Precipitation Wind Pressure Humidity
    00:00 +24°C° 0 mm 2 mps 698 mmHg 53%
    01:00 +23°C° 0 mm 2 mps 698 mmHg 54%
    02:00 +23°C° 0 mm 2 mps 697 mmHg 54%
    03:00 +22°C° 0 mm 1 mps 697 mmHg 54%
    04:00 +22°C° 0 mm 1 mps 697 mmHg 55%
    05:00 +22°C° 0 mm 1 mps 697 mmHg 51%
    06:00 +23°C° 0 mm 1 mps 698 mmHg 47%
    07:00 +24°C° 0 mm 1 mps 698 mmHg 43%
    08:00 +26°C° 0 mm 2 mps 698 mmHg 39%
    09:00 +28°C° 0 mm 2 mps 698 mmHg 34%
    10:00 +30°C° 0 mm 3 mps 698 mmHg 29%
    11:00 +30°C° 0 mm 4 mps 698 mmHg 28%
    12:00 +32°C° 0 mm 4 mps 697 mmHg 26%
    13:00 +33°C° 0 mm 5 mps 697 mmHg 25%
    14:00 +33°C° 0 mm 5 mps 696 mmHg 26%
    15:00 +33°C° 0 mm 4 mps 696 mmHg 27%
    16:00 +33°C° 0 mm 4 mps 696 mmHg 28%
    17:00 +30°C° 0.2 mm 3 mps 696 mmHg 33%
    18:00 +28°C° 0.2 mm 3 mps 696 mmHg 38%
    19:00 +26°C° 0.2 mm 2 mps 696 mmHg 43%
    20:00 +26°C° 0.4 mm 2 mps 696 mmHg 46%
    21:00 +25°C° 0.4 mm 2 mps 696 mmHg 50%
    22:00 +25°C° 0.4 mm 2 mps 697 mmHg 53%
    23:00 +24°C° 0.1 mm 2 mps 696 mmHg 53%

    Day after tomorrow, 25 March, Saturday

    Time Temperature Precipitation Wind Pressure Humidity
    00:00 +23°C° 0.1 mm 2 mps 696 mmHg 53%
    01:00 +23°C° 0.1 mm 2 mps 695 mmHg 53%
    02:00 +21°C° 0 mm 2 mps 695 mmHg 53%
    03:00 +21°C° 0 mm 2 mps 695 mmHg 54%
    04:00 +20°C° 0 mm 2 mps 694 mmHg 55%
    05:00 +21°C° 0 mm 2 mps 695 mmHg 54%
    06:00 +23°C° 0 mm 1 mps 695 mmHg 52%
    07:00 +23°C° 0 mm 1 mps 696 mmHg 51%
    08:00 +25°C° 0 mm 2 mps 696 mmHg 45%
    09:00 +27°C° 0 mm 2 mps 696 mmHg 40%
    10:00 +29°C° 0 mm 3 mps 697 mmHg 34%
    11:00 +30°C° 0 mm 3 mps 696 mmHg 31%
    12:00 +31°C° 0 mm 3 mps 696 mmHg 28%
    13:00 +33°C° 0 mm 3 mps 695 mmHg 26%
    14:00 +33°C° 0 mm 3 mps 695 mmHg 26%
    15:00 +33°C° 0 mm 3 mps 695 mmHg 25%
    16:00 +33°C° 0 mm 3 mps 695 mmHg 25%
    17:00 +30°C° 0.1 mm 2 mps 695 mmHg 32%
    18:00 +28°C° 0.1 mm 2 mps 695 mmHg 38%
    19:00 +26°C° 0.1 mm 1 mps 695 mmHg 45%
    20:00 +26°C° 0.5 mm 2 mps 695 mmHg 49%
    21:00 +25°C° 0.5 mm 2 mps 696 mmHg 53%
    22:00 +25°C° 0.5 mm 2 mps 696 mmHg 56%
    23:00 +24°C° 0.5 mm 2 mps 695 mmHg 58%

    26 March, Sunday

    Time Temperature Precipitation Wind Pressure Humidity
    00:00 +24°C° 0.5 mm 2 mps 695 mmHg 59%
    01:00 +23°C° 0.5 mm 2 mps 695 mmHg 61%
    02:00 +23°C° 0.1 mm 2 mps 694 mmHg 59%
    03:00 +21°C° 0.1 mm 2 mps 694 mmHg 58%
    04:00 +21°C° 0.1 mm 2 mps 694 mmHg 56%
    05:00 +21°C° 0 mm 2 mps 694 mmHg 54%
    06:00 +23°C° 0 mm 2 mps 695 mmHg 52%
    07:00 +23°C° 0 mm 2 mps 695 mmHg 50%
    08:00 +25°C° 0 mm 2 mps 695 mmHg 45%
    09:00 +27°C° 0 mm 2 mps 696 mmHg 39%
    10:00 +29°C° 0 mm 3 mps 696 mmHg 33%
    11:00 +30°C° 0 mm 3 mps 695 mmHg 30%
    12:00 +31°C° 0 mm 3 mps 695 mmHg 27%
    13:00 +33°C° 0 mm 3 mps 695 mmHg 24%
    14:00 +33°C° 0 mm 3 mps 694 mmHg 25%
    15:00 +33°C° 0 mm 3 mps 694 mmHg 26%
    16:00 +33°C° 0 mm 3 mps 694 mmHg 27%
    17:00 +30°C° 0.4 mm 2 mps 695 mmHg 34%
    18:00 +28°C° 0.4 mm 2 mps 695 mmHg 41%
    19:00 +26°C° 0.4 mm 1 mps 696 mmHg 48%
    20:00 +25°C° 1 mm 2 mps 696 mmHg 53%
    21:00 +24°C° 1 mm 2 mps 696 mmHg 59%
    22:00 +24°C° 1 mm 2 mps 696 mmHg 65%
    23:00 +22°C° 1.2 mm 3 mps 696 mmHg 67%

    27 March, Monday

    Time Temperature Precipitation Wind Pressure Humidity
    00:00 +21°C° 1.2 mm 3 mps 696 mmHg 69%
    01:00 +21°C° 1.2 mm 4 mps 696 mmHg 70%
    02:00 +20°C° 0.1 mm 4 mps 696 mmHg 71%
    03:00 +20°C° 0.1 mm 3 mps 696 mmHg 72%
    04:00 +20°C° 0.1 mm 3 mps 696 mmHg 73%
    05:00 +20°C° 0 mm 3 mps 696 mmHg 71%
    06:00 +20°C° 0 mm 3 mps 697 mmHg 69%
    07:00 +20°C° 0 mm 4 mps 697 mmHg 68%
    08:00 +21°C° 0 mm 4 mps 697 mmHg 62%
    09:00 +23°C° 0 mm 4 mps 697 mmHg 56%
    10:00 +25°C° 0 mm 4 mps 697 mmHg 51%
    11:00 +26°C° 0 mm 4 mps 697 mmHg 49%
    12:00 +26°C° 0 mm 4 mps 696 mmHg 47%
    13:00 +27°C° 0 mm 4 mps 696 mmHg 45%
    14:00 +27°C° 0 mm 4 mps 695 mmHg 45%
    15:00 +27°C° 0 mm 3 mps 695 mmHg 45%
    16:00 +27°C° 0 mm 3 mps 695 mmHg 45%
    17:00 +26°C° 0.1 mm 3 mps 695 mmHg 51%
    18:00 +24°C° 0.1 mm 2 mps 696 mmHg 56%
    19:00 +23°C° 0.1 mm 2 mps 696 mmHg 62%
    20:00 +23°C° 0.2 mm 2 mps 696 mmHg 64%
    21:00 +21°C° 0.2 mm 2 mps 696 mmHg 65%
    22:00 +21°C° 0.2 mm 2 mps 697 mmHg 67%
    23:00 +20°C° 0.1 mm 2 mps 696 mmHg 68%

    28 March, Tuesday

    Time Temperature Precipitation Wind Pressure Humidity
    00:00 +20°C° 0.1 mm 2 mps 696 mmHg 70%
    01:00 +20°C° 0.1 mm 2 mps 696 mmHg 71%
    02:00 +19°C° 0 mm 3 mps 696 mmHg 74%
    03:00 +19°C° 0 mm 3 mps 696 mmHg 77%
    04:00 +18°C° 0 mm 3 mps 696 mmHg 80%
    05:00 +19°C° 0 mm 4 mps 696 mmHg 79%
    06:00 +19°C° 0 mm 4 mps 697 mmHg 79%
    07:00 +19°C° 0 mm 5 mps 697 mmHg 79%
    08:00 +20°C° 0 mm 5 mps 697 mmHg 73%
    09:00 +21°C° 0 mm 4 mps 697 mmHg 68%
    10:00 +21°C° 0 mm 4 mps 697 mmHg 63%
    11:00 +22°C° 0 mm 4 mps 697 mmHg 60%
    12:00 +23°C° 0 mm 4 mps 697 mmHg 57%
    13:00 +25°C° 0 mm 4 mps 696 mmHg 55%
    14:00 +25°C° 0 mm 4 mps 696 mmHg 57%
    15:00 +23°C° 0 mm 4 mps 696 mmHg 58%
    16:00 +24°C° 0 mm 3 mps 696 mmHg 60%
    17:00 +22°C° 0 mm 3 mps 696 mmHg 65%
    18:00 +21°C° 0 mm 2 mps 697 mmHg 70%
    19:00 +21°C° 0 mm 1 mps 697 mmHg 75%
    20:00 +20°C° 0.2 mm 2 mps 697 mmHg 77%
    21:00 +19°C° 0.2 mm 2 mps 697 mmHg 79%
    22:00 +19°C° 0.2 mm 2 mps 697 mmHg 81%
    23:00 +19°C° 0 mm 2 mps 697 mmHg 82%
    Show more